スコッティ彗星

430P/Scotti (2016)

English version
Home page
Updated on October 6, 2021

---------------------------------------------------------------------

・ プロフィール

・ 軌道要素

Epoch 2016 June 21.0 TT = JDT 2457560.5                                         
T 2016 June 14.33130 TT                                 Rudenko                 
q   1.5528938            (2000.0)            P               Q                  
n   0.18010449     Peri.   94.64856     -0.85758427     -0.51038812             
a   3.1054153      Node    54.67518     +0.43553783     -0.78644649             
e   0.4999400      Incl.    4.47541     +0.27359828     -0.34785900             
P   5.47                                                                        
From 251 observations 2011 Jan. 11-2021 Aug. 25, mean residual 0".7.            

・ 光度変化

        m1 = 18.0 + 5 logΔ + 10.0 log r

        ※ 灰色の曲線は、m1 = 15.5 + 5 logΔ + 10.0 log r の光度曲線です。

---------------------------------------------------------------------

軌道要素はM.P.E.C. 2021-Q69に掲載されたものです。
光度グラフはComet for Windowsで作成したものです。

---------------------------------------------------------------------

Copyright(C) Seiichi Yoshida (comet@aerith.net). All rights reserved.